Weather in Sazhino

Russia / Omsk Oblast     55°53′30″N   72°23′22″E
temp.,
°C
wind,
m/s
gust,
m/s
humid.,
%
clouds,
%
prec.,
mm/h
press.,
hPa
HPBL,
m
22 january, fri
fri2200:00−22wsw479895 0.2 1011229
03:00−24wsw489889 0.1 1011143
06:00−27wsw479886 0.1 1012123
09:00−29wsw479810 0.0 1013104
12:00−26w479623 0.0 1014230
15:00−24wsw479462 0.0 1016287
18:00−27wsw349753 0.0 101854
21:00−28w339892 0.0 101935
23 january, sat
sat2300:00−29wnw239894 0.0 102124
03:00−30wnw229894 0.0 102319
06:00−32nw239876 0.0 102519
09:00−34nw239819 0.0 102819
12:00−32nw359629 0.0 1030137
15:00−31nw35950 0.0 1032236
18:00−35nw34968 0.0 103451
21:00−37nw349620 0.0 103652
24 january, sun
sun2400:00−38nw339711 0.0 103735
03:00−39nw339617 0.0 103824
06:00−39nw239641 0.0 103942
09:00−38nw2295100 0.0 104022
12:00−35nw129399 0.0 1041122
15:00−33nw129173 0.0 1042182
18:00−38n119738 0.0 104319
21:00−39e11990 0.0 104419
25 january, mon
mon2500:00−39ese12970 0.0 104519
03:00−37ese229563 0.0 104531
06:00−36se339582 0.0 104477
09:00−36ese359699 0.0 104595
12:00−33se469599 0.0 1044199
15:00−31ese469454 0.0 1043239
18:00−34ese479627 0.0 1043123
21:00−33ese479444 0.0 1043171
26 january, tue
tue2600:00−32ese479372 0.0 1043214
03:00−33ese469566 0.0 1042116
06:00−34ese469553 0.0 1043125
09:00−31ese479396 0.0 1043223
12:00−29se479698 0.1 1043260
15:00−27se4795100 0.1 1043291
18:00−28se4896100 0.1 1043248
21:00−29se589698 0.0 1043231